Wetterdaten: Mittwoch, 01.06.2016
Datum Zeit Auen-Temp. Temp gefhlt Luftfeuchte Luftdruck Regen Wind Richtung Richtung Sonnenschein Taupunkt Windben
01.06.2016 00:00 10,5 C 10,3 C 87 % 1014,4 hPa 0,0 mm 0,0 km/h (0 Bft) S 180 0 min 8,4 C 0,0 km/h (0 Bft)
01.06.2016 00:05 10,5 C 10,3 C 87 % 1014,4 hPa 0,0 mm 0,0 km/h (0 Bft) O-SO 112 0 min 8,4 C 0,0 km/h (0 Bft)
01.06.2016 00:10 10,5 C 10,3 C 87 % 1014,4 hPa 0,0 mm 0,0 km/h (0 Bft) S 180 0 min 8,4 C 0,0 km/h (0 Bft)
01.06.2016 00:15 10,5 C 10,3 C 87 % 1014,4 hPa 0,0 mm 0,0 km/h (0 Bft) S-SO 157 0 min 8,4 C 0,0 km/h (0 Bft)
01.06.2016 00:20 10,5 C 10,3 C 87 % 1014,4 hPa 0,0 mm 0,0 km/h (0 Bft) S 180 0 min 8,4 C 0,0 km/h (0 Bft)
01.06.2016 00:25 10,5 C 10,3 C 87 % 1014,4 hPa 0,0 mm 0,0 km/h (0 Bft) O-NO 67 0 min 8,4 C 0,0 km/h (0 Bft)
01.06.2016 00:30 10,5 C 10,3 C 87 % 1014,4 hPa 0,0 mm 0,0 km/h (0 Bft) SO 135 0 min 8,4 C 0,0 km/h (0 Bft)
01.06.2016 00:35 10,5 C 10,4 C 87 % 1014,4 hPa 0,0 mm 0,0 km/h (0 Bft) S 180 0 min 8,4 C 0,0 km/h (0 Bft)
01.06.2016 00:40 10,5 C 10,4 C 87 % 1014,4 hPa 0,0 mm 0,3 km/h (0 Bft) SO 135 0 min 8,4 C 0,0 km/h (0 Bft)
01.06.2016 00:45 10,5 C 10,4 C 87 % 1014,4 hPa 0,0 mm 0,3 km/h (0 Bft) S-SO 157 0 min 8,4 C 0,0 km/h (0 Bft)
01.06.2016 00:50 10,5 C 10,4 C 87 % 1014,2 hPa 0,0 mm 0,0 km/h (0 Bft) N-NO 22 0 min 8,4 C 0,0 km/h (0 Bft)
01.06.2016 00:55 10,5 C 10,5 C 87 % 1014,2 hPa 0,0 mm 0,0 km/h (0 Bft) W 270 0 min 8,4 C 0,0 km/h (0 Bft)
01.06.2016 01:00 10,5 C 10,4 C 87 % 1014,2 hPa 0,7 mm 0,3 km/h (0 Bft) SW 225 0 min 8,4 C 0,0 km/h (0 Bft)
01.06.2016 01:02 10,5 C 10,4 C 87 % 1014,2 hPa 0,0 mm 0,3 km/h (0 Bft) SW 225 0 min 8,4 C 0,0 km/h (0 Bft)
01.06.2016 01:05 10,5 C 10,4 C 87 % 1014,2 hPa 0,0 mm 0,3 km/h (0 Bft) SW 225 0 min 8,4 C 0,0 km/h (0 Bft)
01.06.2016 01:10 10,5 C 10,4 C 87 % 1014,2 hPa 0,0 mm 2,4 km/h (1 Bft) SW 225 0 min 8,4 C 9,2 km/h (2 Bft)
01.06.2016 01:15 10,5 C 10,4 C 87 % 1014,2 hPa 0,0 mm 2,7 km/h (1 Bft) W-SW 247 0 min 8,4 C 0,0 km/h (0 Bft)
01.06.2016 01:20 10,5 C 10,4 C 87 % 1014,2 hPa 0,0 mm 5,1 km/h (1 Bft) S-SW 202 0 min 8,4 C 11,0 km/h (2 Bft)
01.06.2016 01:25 10,5 C 10,4 C 87 % 1014,2 hPa 0,0 mm 8,0 km/h (2 Bft) O-SO 112 0 min 8,4 C 11,9 km/h (2 Bft)
01.06.2016 01:30 10,5 C 10,2 C 87 % 1014,2 hPa 0,0 mm 8,6 km/h (2 Bft) S 180 0 min 8,4 C 14,6 km/h (3 Bft)
01.06.2016 01:35 10,5 C 10,3 C 87 % 1014,2 hPa 0,0 mm 5,7 km/h (1 Bft) W-SW 247 0 min 8,4 C 0,0 km/h (0 Bft)
01.06.2016 01:40 10,5 C 10,3 C 87 % 1014,2 hPa 0,0 mm 1,2 km/h (1 Bft) S 180 0 min 8,4 C 0,0 km/h (0 Bft)
01.06.2016 01:45 10,3 C 10,3 C 87 % 1014,2 hPa 0,0 mm 1,5 km/h (1 Bft) S-SO 157 0 min 8,2 C 0,0 km/h (0 Bft)
01.06.2016 01:50 10,3 C 10,3 C 87 % 1014,2 hPa 0,0 mm 1,8 km/h (1 Bft) SW 225 0 min 8,2 C 0,0 km/h (0 Bft)
01.06.2016 01:55 10,3 C 10,3 C 87 % 1014,2 hPa 0,0 mm 0,9 km/h (0 Bft) W 270 0 min 8,2 C 5,1 km/h (1 Bft)
01.06.2016 02:00 10,5 C 10,4 C 87 % 1014,2 hPa 0,0 mm 2,7 km/h (1 Bft) W-SW 247 0 min 8,4 C 8,6 km/h (2 Bft)
01.06.2016 02:05 10,5 C 10,4 C 87 % 1014,2 hPa 0,0 mm 3,0 km/h (1 Bft) W-SW 247 0 min 8,4 C 0,0 km/h (0 Bft)
01.06.2016 02:10 10,5 C 10,5 C 87 % 1014,1 hPa 0,0 mm 3,0 km/h (1 Bft) S 180 0 min 8,4 C 8,0 km/h (2 Bft)
01.06.2016 02:15 10,5 C 10,5 C 87 % 1014,1 hPa 0,0 mm 2,1 km/h (1 Bft) SW 225 0 min 8,4 C 0,0 km/h (0 Bft)
01.06.2016 02:20 10,5 C 10,5 C 87 % 1014,1 hPa 0,0 mm 1,2 km/h (1 Bft) SW 225 0 min 8,4 C 0,0 km/h (0 Bft)
01.06.2016 02:25 10,5 C 10,5 C 87 % 1014,1 hPa 0,0 mm 0,0 km/h (0 Bft) N-NW 337 0 min 8,4 C 0,0 km/h (0 Bft)
01.06.2016 02:30 10,5 C 10,4 C 87 % 1014,1 hPa 0,0 mm 0,0 km/h (0 Bft) SO 135 0 min 8,4 C 0,0 km/h (0 Bft)
01.06.2016 02:35 10,5 C 10,4 C 87 % 1014,1 hPa 0,0 mm 0,0 km/h (0 Bft) N-NW 337 0 min 8,4 C 0,0 km/h (0 Bft)
01.06.2016 02:40 10,5 C 10,3 C 87 % 1014,1 hPa 0,0 mm 0,9 km/h (0 Bft) S-SW 202 0 min 8,4 C 0,0 km/h (0 Bft)
01.06.2016 02:45 10,5 C 10,3 C 87 % 1014,1 hPa 0,0 mm 1,2 km/h (1 Bft) O-SO 112 0 min 8,4 C 0,0 km/h (0 Bft)
01.06.2016 02:50 10,5 C 10,3 C 87 % 1014,1 hPa 0,0 mm 1,8 km/h (1 Bft) W-SW 247 0 min 8,4 C 11,9 km/h (2 Bft)
01.06.2016 02:55 10,5 C 10,3 C 87 % 1014,1 hPa 0,0 mm 2,1 km/h (1 Bft) SO 135 0 min 8,4 C 0,0 km/h (0 Bft)
01.06.2016 03:00 10,5 C 10,3 C 87 % 1014,1 hPa 0,0 mm 2,7 km/h (1 Bft) S-SW 202 0 min 8,4 C 10,1 km/h (2 Bft)
01.06.2016 03:05 10,5 C 10,3 C 87 % 1014,1 hPa 0,0 mm 3,0 km/h (1 Bft) S 180 0 min 8,4 C 0,0 km/h (0 Bft)
01.06.2016 03:10 10,5 C 10,3 C 87 % 1014,0 hPa 0,0 mm 2,4 km/h (1 Bft) S-SW 202 0 min 8,4 C 6,9 km/h (2 Bft)
01.06.2016 03:15 10,3 C 10,3 C 87 % 1014,0 hPa 0,0 mm 1,2 km/h (1 Bft) SO 135 0 min 8,2 C 0,0 km/h (0 Bft)
01.06.2016 03:20 10,3 C 10,3 C 87 % 1014,0 hPa 0,0 mm 1,5 km/h (1 Bft) W-SW 247 0 min 8,2 C 18,2 km/h (3 Bft)
01.06.2016 03:25 10,3 C 10,2 C 87 % 1014,0 hPa 0,0 mm 0,9 km/h (0 Bft) W 270 0 min 8,2 C 0,0 km/h (0 Bft)
01.06.2016 03:30 10,5 C 10,3 C 87 % 1014,1 hPa 0,0 mm 0,0 km/h (0 Bft) W-NW 292 0 min 8,4 C 0,0 km/h (0 Bft)
01.06.2016 03:35 10,5 C 10,3 C 87 % 1014,1 hPa 0,0 mm 0,0 km/h (0 Bft) N 360 0 min 8,4 C 0,0 km/h (0 Bft)
01.06.2016 03:40 10,5 C 10,3 C 87 % 1014,1 hPa 0,0 mm 0,9 km/h (0 Bft) SW 225 0 min 8,4 C 4,2 km/h (1 Bft)
01.06.2016 03:45 10,5 C 10,3 C 87 % 1014,1 hPa 0,0 mm 0,9 km/h (0 Bft) NW 315 0 min 8,4 C 0,0 km/h (0 Bft)
01.06.2016 03:50 10,3 C 10,2 C 87 % 1014,2 hPa 0,0 mm 0,6 km/h (0 Bft) W-NW 292 0 min 8,2 C 0,0 km/h (0 Bft)
01.06.2016 03:55 10,3 C 10,2 C 87 % 1014,2 hPa 0,0 mm 0,6 km/h (0 Bft) W-NW 292 0 min 8,2 C 0,0 km/h (0 Bft)
01.06.2016 04:00 10,3 C 10,2 C 87 % 1014,2 hPa 0,7 mm 0,6 km/h (0 Bft) S 180 0 min 8,2 C 11,6 km/h (2 Bft)
01.06.2016 04:03 10,3 C 10,2 C 87 % 1014,2 hPa 0,0 mm 0,6 km/h (0 Bft) S 180 0 min 8,2 C 11,6 km/h (2 Bft)
01.06.2016 04:05 10,3 C 10,2 C 87 % 1014,2 hPa 0,0 mm 0,6 km/h (0 Bft) S 180 0 min 8,2 C 11,6 km/h (2 Bft)
01.06.2016 04:10 10,3 C 10,2 C 87 % 1014,2 hPa 0,0 mm 2,1 km/h (1 Bft) SW 225 0 min 8,2 C 0,0 km/h (0 Bft)
01.06.2016 04:15 10,3 C 10,1 C 87 % 1014,2 hPa 0,0 mm 1,8 km/h (1 Bft) W-SW 247 0 min 8,2 C 0,0 km/h (0 Bft)
01.06.2016 04:20 10,3 C 10,1 C 87 % 1014,2 hPa 0,7 mm 1,2 km/h (1 Bft) W-SW 247 0 min 8,2 C 10,4 km/h (2 Bft)
01.06.2016 04:25 10,3 C 10,1 C 87 % 1014,2 hPa 0,0 mm 1,8 km/h (1 Bft) W-SW 247 0 min 8,2 C 0,0 km/h (0 Bft)
01.06.2016 04:30 10,3 C 10,1 C 87 % 1014,1 hPa 0,0 mm 0,9 km/h (0 Bft) SW 225 0 min 8,2 C 0,0 km/h (0 Bft)
01.06.2016 04:35 10,3 C 10,1 C 87 % 1014,1 hPa 0,7 mm 0,9 km/h (0 Bft) W-SW 247 0 min 8,2 C 3,9 km/h (1 Bft)
01.06.2016 04:40 10,3 C 10,1 C 87 % 1014,1 hPa 0,7 mm 1,5 km/h (1 Bft) SW 225 0 min 8,2 C 0,0 km/h (0 Bft)
01.06.2016 04:45 10,3 C 10,1 C 87 % 1014,1 hPa 0,0 mm 1,5 km/h (1 Bft) S 180 0 min 8,2 C 0,0 km/h (0 Bft)
01.06.2016 04:50 10,3 C 10,1 C 87 % 1014,1 hPa 0,0 mm 0,0 km/h (0 Bft) O-NO 67 0 min 8,2 C 0,0 km/h (0 Bft)
01.06.2016 04:55 10,3 C 10,1 C 87 % 1014,1 hPa 0,0 mm 0,0 km/h (0 Bft) SO 135 0 min 8,2 C 0,0 km/h (0 Bft)
01.06.2016 05:00 10,2 C 10,1 C 87 % 1014,1 hPa 0,0 mm 0,0 km/h (0 Bft) SW 225 0 min 8,1 C 0,0 km/h (0 Bft)
01.06.2016 05:05 10,2 C 10,1 C 87 % 1014,1 hPa 0,7 mm 0,0 km/h (0 Bft) SW 225 0 min 8,1 C 0,0 km/h (0 Bft)
01.06.2016 05:10 10,3 C 10,2 C 87 % 1014,2 hPa 0,0 mm 0,0 km/h (0 Bft) NW 315 0 min 8,2 C 0,0 km/h (0 Bft)
01.06.2016 05:15 10,3 C 10,1 C 87 % 1014,2 hPa 0,0 mm 0,0 km/h (0 Bft) SO 135 0 min 8,2 C 0,0 km/h (0 Bft)
01.06.2016 05:20 10,3 C 10,1 C 87 % 1014,2 hPa 0,0 mm 0,0 km/h (0 Bft) S 180 0 min 8,2 C 0,0 km/h (0 Bft)
01.06.2016 05:25 10,3 C 10,1 C 87 % 1014,2 hPa 0,0 mm 0,0 km/h (0 Bft) W-SW 247 0 min 8,2 C 0,0 km/h (0 Bft)
01.06.2016 05:30 10,3 C 10,1 C 87 % 1014,2 hPa 0,0 mm 0,0 km/h (0 Bft) W-SW 247 0 min 8,2 C 0,0 km/h (0 Bft)
01.06.2016 05:35 10,3 C 10,1 C 87 % 1014,2 hPa 0,0 mm 0,0 km/h (0 Bft) S 180 0 min 8,2 C 0,0 km/h (0 Bft)
01.06.2016 05:40 10,3 C 10,1 C 87 % 1014,2 hPa 0,0 mm 0,3 km/h (0 Bft) N 360 0 min 8,2 C 0,0 km/h (0 Bft)
01.06.2016 05:45 10,3 C 10,1 C 87 % 1014,2 hPa 0,0 mm 0,6 km/h (0 Bft) SW 225 0 min 8,2 C 0,0 km/h (0 Bft)
01.06.2016 05:50 10,3 C 10,1 C 87 % 1014,2 hPa 0,0 mm 0,3 km/h (0 Bft) W 270 0 min 8,2 C 0,0 km/h (0 Bft)
01.06.2016 05:55 10,3 C 10,1 C 87 % 1014,2 hPa 0,0 mm 0,3 km/h (0 Bft) S 180 0 min 8,2 C 0,0 km/h (0 Bft)
01.06.2016 06:00 10,3 C 10,1 C 87 % 1014,2 hPa 0,0 mm 0,0 km/h (0 Bft) S 180 0 min 8,2 C 0,0 km/h (0 Bft)
01.06.2016 06:05 10,3 C 10,1 C 87 % 1014,2 hPa 0,0 mm 0,3 km/h (0 Bft) W-SW 247 0 min 8,2 C 10,1 km/h (2 Bft)
01.06.2016 06:10 10,3 C 10,2 C 87 % 1014,2 hPa 0,0 mm 2,4 km/h (1 Bft) S-SO 157 0 min 8,2 C 0,0 km/h (0 Bft)
01.06.2016 06:15 10,3 C 10,2 C 87 % 1014,2 hPa 0,0 mm 2,1 km/h (1 Bft) S 180 0 min 8,2 C 0,0 km/h (0 Bft)
01.06.2016 06:20 10,3 C 10,2 C 87 % 1014,2 hPa 0,0 mm 0,3 km/h (0 Bft) S 180 0 min 8,2 C 0,0 km/h (0 Bft)
01.06.2016 06:25 10,3 C 10,3 C 87 % 1014,2 hPa 0,0 mm 0,0 km/h (0 Bft) S-SW 202 0 min 8,2 C 0,0 km/h (0 Bft)
01.06.2016 06:30 10,3 C 10,3 C 87 % 1014,3 hPa 0,0 mm 2,4 km/h (1 Bft) W 270 0 min 8,2 C 3,9 km/h (1 Bft)
01.06.2016 06:35 10,3 C 10,3 C 87 % 1014,3 hPa 0,0 mm 4,2 km/h (1 Bft) SW 225 0 min 8,2 C 6,3 km/h (2 Bft)
01.06.2016 06:40 10,5 C 10,4 C 87 % 1014,3 hPa 0,0 mm 2,7 km/h (1 Bft) S 180 0 min 8,4 C 0,0 km/h (0 Bft)
01.06.2016 06:45 10,5 C 10,4 C 87 % 1014,3 hPa 0,0 mm 2,1 km/h (1 Bft) S-SW 202 0 min 8,4 C 0,0 km/h (0 Bft)
01.06.2016 06:50 10,5 C 10,4 C 87 % 1014,3 hPa 0,0 mm 2,4 km/h (1 Bft) S 180 0 min 8,4 C 8,3 km/h (2 Bft)
01.06.2016 06:55 10,5 C 10,4 C 87 % 1014,3 hPa 0,0 mm 2,7 km/h (1 Bft) S-SW 202 0 min 8,4 C 0,0 km/h (0 Bft)
01.06.2016 07:00 10,5 C 10,5 C 87 % 1014,3 hPa 0,0 mm 2,7 km/h (1 Bft) W-SW 247 0 min 8,4 C 0,0 km/h (0 Bft)
01.06.2016 07:03 10,5 C 10,5 C 87 % 1014,3 hPa 0,0 mm 1,5 km/h (1 Bft) SW 225 0 min 8,4 C 0,0 km/h (0 Bft)
01.06.2016 07:04 10,5 C 10,5 C 87 % 1014,3 hPa 0,0 mm 1,5 km/h (1 Bft) SW 225 0 min 8,4 C 0,0 km/h (0 Bft)
01.06.2016 07:05 10,5 C 10,5 C 87 % 1014,3 hPa 0,0 mm 1,5 km/h (1 Bft) SW 225 0 min 8,4 C 0,0 km/h (0 Bft)
01.06.2016 07:10 10,5 C 10,5 C 87 % 1014,5 hPa 0,0 mm 0,3 km/h (0 Bft) SW 225 0 min 8,4 C 0,0 km/h (0 Bft)
01.06.2016 07:15 10,5 C 10,6 C 87 % 1014,5 hPa 0,0 mm 0,6 km/h (0 Bft) S 180 0 min 8,4 C 0,0 km/h (0 Bft)
01.06.2016 07:20 10,5 C 10,5 C 87 % 1014,5 hPa 0,0 mm 2,4 km/h (1 Bft) S 180 0 min 8,4 C 10,7 km/h (2 Bft)
01.06.2016 07:25 10,5 C 10,6 C 87 % 1014,5 hPa 0,0 mm 2,1 km/h (1 Bft) W-NW 292 0 min 8,4 C 0,0 km/h (0 Bft)
01.06.2016 07:30 10,5 C 10,6 C 87 % 1014,6 hPa 0,0 mm 1,5 km/h (1 Bft) S-SW 202 0 min 8,4 C 0,0 km/h (0 Bft)
01.06.2016 07:35 10,5 C 10,5 C 87 % 1014,6 hPa 0,7 mm 1,2 km/h (1 Bft) SW 225 0 min 8,4 C 10,1 km/h (2 Bft)
01.06.2016 07:40 10,5 C 10,5 C 87 % 1014,6 hPa 0,0 mm 1,5 km/h (1 Bft) W-SW 247 0 min 8,4 C 0,0 km/h (0 Bft)
01.06.2016 07:45 10,5 C 10,5 C 87 % 1014,6 hPa 0,0 mm 1,5 km/h (1 Bft) S-SO 157 0 min 8,4 C 0,0 km/h (0 Bft)
01.06.2016 07:50 10,5 C 10,5 C 87 % 1014,6 hPa 0,0 mm 0,9 km/h (0 Bft) W-SW 247 0 min 8,4 C 0,0 km/h (0 Bft)
01.06.2016 07:55 10,6 C 10,5 C 87 % 1014,6 hPa 0,0 mm 0,9 km/h (0 Bft) N 360 0 min 8,5 C 0,0 km/h (0 Bft)
01.06.2016 08:00 10,6 C 10,6 C 87 % 1014,6 hPa 0,0 mm 0,6 km/h (0 Bft) SW 225 0 min 8,5 C 0,0 km/h (0 Bft)
01.06.2016 08:05 10,7 C 10,8 C 87 % 1014,6 hPa 0,0 mm 0,9 km/h (0 Bft) W-SW 247 0 min 8,6 C 7,5 km/h (2 Bft)
01.06.2016 08:10 10,8 C 10,9 C 87 % 1014,6 hPa 0,0 mm 2,4 km/h (1 Bft) W 270 0 min 8,7 C 0,0 km/h (0 Bft)
01.06.2016 08:15 10,9 C 11,0 C 87 % 1014,6 hPa 0,0 mm 2,4 km/h (1 Bft) W-NW 292 0 min 8,8 C 0,0 km/h (0 Bft)
01.06.2016 08:20 11,0 C 11,0 C 87 % 1014,6 hPa 0,0 mm 0,3 km/h (0 Bft) W-SW 247 0 min 8,9 C 0,0 km/h (0 Bft)
01.06.2016 08:25 11,0 C 11,1 C 87 % 1014,6 hPa 0,0 mm 0,3 km/h (0 Bft) W-NW 292 0 min 8,9 C 0,0 km/h (0 Bft)
01.06.2016 08:30 11,2 C 11,3 C 87 % 1014,8 hPa 0,0 mm 0,6 km/h (0 Bft) W-SW 247 0 min 9,1 C 7,2 km/h (2 Bft)
01.06.2016 08:35 11,2 C 11,3 C 87 % 1014,8 hPa 0,0 mm 0,6 km/h (0 Bft) SO 135 0 min 9,1 C 0,0 km/h (0 Bft)
01.06.2016 08:40 11,2 C 11,4 C 87 % 1014,8 hPa 0,0 mm 1,2 km/h (1 Bft) S 180 0 min 9,1 C 0,0 km/h (0 Bft)
01.06.2016 08:45 11,4 C 11,6 C 87 % 1014,8 hPa 0,0 mm 0,9 km/h (0 Bft) W 270 0 min 9,3 C 0,0 km/h (0 Bft)
01.06.2016 08:50 11,5 C 11,7 C 87 % 1014,9 hPa 0,0 mm 0,3 km/h (0 Bft) SW 225 0 min 9,4 C 0,0 km/h (0 Bft)
01.06.2016 08:55 11,5 C 11,7 C 87 % 1014,9 hPa 0,0 mm 0,3 km/h (0 Bft) N-NW 337 0 min 9,4 C 0,0 km/h (0 Bft)
01.06.2016 09:00 11,5 C 11,7 C 87 % 1014,9 hPa 0,0 mm 0,0 km/h (0 Bft) N-NW 337 0 min 9,4 C 0,0 km/h (0 Bft)
01.06.2016 09:05 11,6 C 11,8 C 87 % 1014,9 hPa 0,0 mm 0,0 km/h (0 Bft) SW 225 0 min 9,5 C 0,0 km/h (0 Bft)
01.06.2016 09:10 11,7 C 12,0 C 87 % 1014,9 hPa 0,0 mm 0,0 km/h (0 Bft) W 270 0 min 9,6 C 0,0 km/h (0 Bft)
01.06.2016 09:15 12,0 C 12,3 C 87 % 1014,9 hPa 0,0 mm 0,0 km/h (0 Bft) NW 315 0 min 9,9 C 0,0 km/h (0 Bft)
01.06.2016 09:20 12,1 C 12,9 C 87 % 1014,9 hPa 0,0 mm 0,0 km/h (0 Bft) S 180 0 min 10,0 C 6,9 km/h (2 Bft)
01.06.2016 09:25 12,2 C 12,9 C 87 % 1014,9 hPa 0,0 mm 1,2 km/h (1 Bft) W-NW 292 0 min 10,1 C 0,0 km/h (0 Bft)
01.06.2016 09:30 12,4 C 13,1 C 87 % 1015,1 hPa 0,0 mm 1,2 km/h (1 Bft) NW 315 0 min 10,3 C 0,0 km/h (0 Bft)
01.06.2016 09:35 12,6 C 13,3 C 87 % 1015,1 hPa 0,0 mm 0,6 km/h (0 Bft) W-NW 292 0 min 10,5 C 6,6 km/h (2 Bft)
01.06.2016 09:40 12,7 C 13,7 C 86 % 1015,1 hPa 0,0 mm 1,5 km/h (1 Bft) W 270 0 min 10,4 C 5,7 km/h (1 Bft)
01.06.2016 09:45 12,7 C 13,9 C 86 % 1015,1 hPa 0,0 mm 1,5 km/h (1 Bft) SO 135 0 min 10,4 C 0,0 km/h (0 Bft)
01.06.2016 09:50 12,7 C 13,9 C 86 % 1015,1 hPa 0,0 mm 2,1 km/h (1 Bft) N-NW 337 0 min 10,4 C 0,0 km/h (0 Bft)
01.06.2016 09:55 12,7 C 13,9 C 86 % 1015,1 hPa 0,0 mm 2,1 km/h (1 Bft) NW 315 0 min 10,4 C 0,0 km/h (0 Bft)
01.06.2016 10:00 12,7 C 14,1 C 86 % 1015,1 hPa 0,0 mm 2,7 km/h (1 Bft) W-NW 292 0 min 10,4 C 4,8 km/h (1 Bft)
01.06.2016 10:03 12,8 C 14,4 C 86 % 1015,1 hPa 0,0 mm 3,3 km/h (1 Bft) W-NW 292 0 min 10,5 C 9,5 km/h (2 Bft)
01.06.2016 10:05 12,8 C 14,4 C 86 % 1015,1 hPa 0,0 mm 3,3 km/h (1 Bft) W-NW 292 0 min 10,5 C 9,5 km/h (2 Bft)
01.06.2016 10:10 13,0 C 15,2 C 85 % 1015,0 hPa 0,0 mm 3,0 km/h (1 Bft) W-SW 247 0 min 10,5 C 4,8 km/h (1 Bft)
01.06.2016 10:15 13,1 C 15,5 C 85 % 1015,0 hPa 0,0 mm 4,8 km/h (1 Bft) W 270 0 min 10,6 C 0,0 km/h (0 Bft)
01.06.2016 10:20 13,2 C 15,8 C 85 % 1015,0 hPa 0,0 mm 5,1 km/h (1 Bft) W 270 0 min 10,7 C 13,1 km/h (3 Bft)
01.06.2016 10:25 13,2 C 15,8 C 84 % 1015,0 hPa 0,0 mm 5,1 km/h (1 Bft) W-SW 247 0 min 10,6 C 8,9 km/h (2 Bft)
01.06.2016 10:30 13,3 C 16,0 C 84 % 1015,1 hPa 0,0 mm 6,0 km/h (2 Bft) NW 315 0 min 10,7 C 8,3 km/h (2 Bft)
01.06.2016 10:35 13,4 C 16,2 C 84 % 1015,1 hPa 0,0 mm 6,0 km/h (2 Bft) N-NW 337 0 min 10,8 C 10,1 km/h (2 Bft)
01.06.2016 10:40 13,7 C 16,8 C 84 % 1015,1 hPa 0,0 mm 5,1 km/h (1 Bft) W-NW 292 0 min 11,0 C 0,0 km/h (0 Bft)
01.06.2016 10:45 13,8 C 17,0 C 83 % 1015,1 hPa 0,0 mm 4,2 km/h (1 Bft) W-SW 247 5 min 11,0 C 7,2 km/h (2 Bft)
01.06.2016 10:50 13,9 C 17,2 C 83 % 1015,2 hPa 0,0 mm 6,3 km/h (2 Bft) W-NW 292 5 min 11,1 C 13,1 km/h (3 Bft)
01.06.2016 10:55 14,0 C 17,2 C 82 % 1015,2 hPa 0,0 mm 6,9 km/h (2 Bft) W-SW 247 5 min 11,0 C 6,6 km/h (2 Bft)
01.06.2016 11:00 14,2 C 17,4 C 82 % 1015,2 hPa 0,0 mm 6,3 km/h (2 Bft) NW 315 5 min 11,2 C 4,8 km/h (1 Bft)
01.06.2016 11:05 14,4 C 17,5 C 81 % 1015,2 hPa 0,0 mm 4,5 km/h (1 Bft) NW 315 0 min 11,2 C 8,9 km/h (2 Bft)
01.06.2016 11:10 14,2 C 17,3 C 80 % 1015,2 hPa 0,0 mm 5,4 km/h (1 Bft) N-NW 337 5 min 10,8 C 6,3 km/h (2 Bft)
01.06.2016 11:15 14,2 C 17,3 C 80 % 1015,2 hPa 0,0 mm 6,6 km/h (2 Bft) W 270 5 min 10,8 C 11,9 km/h (2 Bft)
01.06.2016 11:20 14,5 C 17,7 C 80 % 1015,2 hPa 0,0 mm 4,2 km/h (1 Bft) S-SW 202 0 min 11,1 C 3,9 km/h (1 Bft)
01.06.2016 11:25 14,5 C 18,2 C 79 % 1015,2 hPa 0,0 mm 3,9 km/h (1 Bft) S-SW 202 5 min 10,9 C 13,1 km/h (3 Bft)
01.06.2016 11:30 14,3 C 18,0 C 78 % 1015,4 hPa 0,0 mm 3,9 km/h (1 Bft) S 180 5 min 10,5 C 18,8 km/h (3 Bft)
01.06.2016 11:35 14,1 C 17,3 C 77 % 1015,4 hPa 0,0 mm 4,8 km/h (1 Bft) SW 225 5 min 10,1 C 11,9 km/h (2 Bft)
01.06.2016 11:40 13,8 C 16,6 C 77 % 1015,4 hPa 0,0 mm 6,6 km/h (2 Bft) W-SW 247 0 min 9,8 C 19,4 km/h (3 Bft)
01.06.2016 11:45 14,0 C 16,5 C 77 % 1015,4 hPa 0,0 mm 6,6 km/h (2 Bft) W-NW 292 0 min 10,0 C 0,0 km/h (0 Bft)
01.06.2016 11:50 14,4 C 17,2 C 77 % 1015,3 hPa 0,0 mm 3,3 km/h (1 Bft) SW 225 0 min 10,4 C 0,0 km/h (0 Bft)
01.06.2016 11:55 14,3 C 17,3 C 77 % 1015,3 hPa 0,0 mm 1,8 km/h (1 Bft) W-SW 247 5 min 10,3 C 5,4 km/h (1 Bft)
01.06.2016 12:00 14,2 C 17,2 C 77 % 1015,3 hPa 0,0 mm 2,4 km/h (1 Bft) S 180 5 min 10,2 C 0,0 km/h (0 Bft)
01.06.2016 12:05 14,3 C 17,2 C 77 % 1015,3 hPa 0,0 mm 1,8 km/h (1 Bft) N-NW 337 0 min 10,3 C 0,0 km/h (0 Bft)
01.06.2016 12:10 14,7 C 18,1 C 76 % 1015,3 hPa 0,0 mm 3,6 km/h (1 Bft) NW 315 5 min 10,5 C 5,4 km/h (1 Bft)
01.06.2016 12:15 14,8 C 18,4 C 76 % 1015,3 hPa 0,0 mm 6,3 km/h (2 Bft) W-SW 247 5 min 10,6 C 11,0 km/h (2 Bft)
01.06.2016 12:20 14,6 C 18,1 C 76 % 1015,3 hPa 0,0 mm 4,2 km/h (1 Bft) NW 315 5 min 10,4 C 20,9 km/h (4 Bft)
01.06.2016 12:25 14,4 C 17,5 C 75 % 1015,3 hPa 0,0 mm 1,2 km/h (1 Bft) W 270 5 min 10,0 C 0,0 km/h (0 Bft)
01.06.2016 12:30 14,2 C 16,7 C 76 % 1015,4 hPa 0,0 mm 0,3 km/h (0 Bft) N-NW 337 5 min 10,0 C 0,0 km/h (0 Bft)
01.06.2016 12:35 14,1 C 16,2 C 76 % 1015,4 hPa 0,0 mm 0,3 km/h (0 Bft) S 180 0 min 9,9 C 0,0 km/h (0 Bft)
01.06.2016 12:40 14,0 C 15,7 C 76 % 1015,4 hPa 0,0 mm 0,0 km/h (0 Bft) W 270 0 min 9,8 C 0,0 km/h (0 Bft)
01.06.2016 12:45 13,9 C 15,6 C 76 % 1015,4 hPa 0,0 mm 0,3 km/h (0 Bft) W 270 0 min 9,7 C 8,3 km/h (2 Bft)
01.06.2016 12:50 14,0 C 15,7 C 76 % 1015,4 hPa 0,0 mm 0,9 km/h (0 Bft) S 180 0 min 9,8 C 0,0 km/h (0 Bft)
01.06.2016 12:55 14,2 C 16,0 C 76 % 1015,4 hPa 0,0 mm 0,6 km/h (0 Bft) SW 225 0 min 10,0 C 0,0 km/h (0 Bft)
01.06.2016 13:00 14,7 C 16,8 C 76 % 1015,4 hPa 0,0 mm 0,9 km/h (0 Bft) NW 315 0 min 10,5 C 0,0 km/h (0 Bft)
01.06.2016 13:03 15,1 C 17,6 C 76 % 1015,4 hPa 0,0 mm 1,5 km/h (1 Bft) SW 225 0 min 10,9 C 0,0 km/h (0 Bft)
01.06.2016 13:06 15,1 C 17,6 C 76 % 1015,4 hPa 0,0 mm 1,5 km/h (1 Bft) SW 225 0 min 10,9 C 0,0 km/h (0 Bft)
01.06.2016 13:10 16,4 C 19,9 C 75 % 1015,0 hPa 0,7 mm 0,9 km/h (0 Bft) W 270 0 min 12,0 C 3,9 km/h (1 Bft)
01.06.2016 13:15 16,8 C 22,5 C 73 % 1015,0 hPa 0,0 mm 0,9 km/h (0 Bft) W-NW 292 5 min 11,9 C 4,8 km/h (1 Bft)
01.06.2016 13:20 17,2 C 24,4 C 71 % 1015,0 hPa 0,0 mm 1,8 km/h (1 Bft) NW 315 5 min 11,9 C 5,7 km/h (1 Bft)
01.06.2016 13:25 17,1 C 24,3 C 70 % 1015,0 hPa 0,0 mm 2,4 km/h (1 Bft) W-NW 292 5 min 11,6 C 11,9 km/h (2 Bft)
01.06.2016 13:30 16,7 C 22,6 C 70 % 1015,1 hPa 0,0 mm 4,5 km/h (1 Bft) W-NW 292 5 min 11,2 C 6,9 km/h (2 Bft)
01.06.2016 13:35 16,4 C 21,6 C 70 % 1015,1 hPa 0,0 mm 5,4 km/h (1 Bft) W 270 5 min 10,9 C 17,6 km/h (3 Bft)
01.06.2016 13:40 16,3 C 20,5 C 70 % 1015,1 hPa 0,0 mm 6,9 km/h (2 Bft) W 270 5 min 10,8 C 6,3 km/h (2 Bft)
01.06.2016 13:45 16,6 C 21,1 C 70 % 1015,1 hPa 0,0 mm 6,9 km/h (2 Bft) W-NW 292 5 min 11,1 C 8,9 km/h (2 Bft)
01.06.2016 13:50 16,4 C 20,6 C 70 % 1015,5 hPa 0,0 mm 7,7 km/h (2 Bft) NW 315 5 min 10,9 C 12,8 km/h (3 Bft)
01.06.2016 13:55 16,1 C 19,7 C 69 % 1015,5 hPa 0,0 mm 9,8 km/h (2 Bft) W-NW 292 5 min 10,4 C 12,2 km/h (2 Bft)
01.06.2016 14:00 16,1 C 18,7 C 70 % 1015,5 hPa 0,0 mm 7,5 km/h (2 Bft) W 270 0 min 10,6 C 0,0 km/h (0 Bft)
01.06.2016 14:05 16,0 C 18,3 C 70 % 1015,5 hPa 0,0 mm 5,7 km/h (1 Bft) W-NW 292 0 min 10,5 C 6,3 km/h (2 Bft)
01.06.2016 14:10 15,9 C 18,2 C 70 % 1015,1 hPa 0,0 mm 2,4 km/h (1 Bft) W-NW 292 0 min 10,4 C 0,0 km/h (0 Bft)
01.06.2016 14:15 15,9 C 18,3 C 71 % 1015,1 hPa 0,0 mm 0,3 km/h (0 Bft) W 270 0 min 10,6 C 0,0 km/h (0 Bft)
01.06.2016 14:20 16,1 C 18,4 C 70 % 1015,1 hPa 0,0 mm 0,3 km/h (0 Bft) NW 315 0 min 10,6 C 6,9 km/h (2 Bft)
01.06.2016 14:25 16,1 C 18,3 C 70 % 1015,1 hPa 0,0 mm 3,0 km/h (1 Bft) NW 315 0 min 10,6 C 4,8 km/h (1 Bft)
01.06.2016 14:30 15,9 C 18,0 C 71 % 1014,8 hPa 0,0 mm 7,5 km/h (2 Bft) W-SW 247 0 min 10,6 C 9,8 km/h (2 Bft)
01.06.2016 14:35 15,8 C 17,5 C 72 % 1014,8 hPa 0,0 mm 7,7 km/h (2 Bft) N-NW 337 0 min 10,8 C 5,7 km/h (1 Bft)
01.06.2016 14:40 16,3 C 18,4 C 72 % 1014,8 hPa 0,0 mm 6,6 km/h (2 Bft) N-NW 337 0 min 11,2 C 12,2 km/h (2 Bft)
01.06.2016 14:45 16,8 C 20,4 C 71 % 1014,8 hPa 0,0 mm 7,5 km/h (2 Bft) SO 135 0 min 11,5 C 8,3 km/h (2 Bft)
01.06.2016 14:50 17,4 C 23,2 C 70 % 1014,6 hPa 0,0 mm 6,3 km/h (2 Bft) W-NW 292 5 min 11,9 C 9,8 km/h (2 Bft)
01.06.2016 14:55 17,4 C 24,2 C 70 % 1014,6 hPa 0,0 mm 5,7 km/h (1 Bft) NW 315 5 min 11,9 C 10,1 km/h (2 Bft)
01.06.2016 15:00 17,2 C 24,1 C 69 % 1014,6 hPa 0,0 mm 8,0 km/h (2 Bft) NW 315 5 min 11,5 C 9,8 km/h (2 Bft)
01.06.2016 15:05 17,0 C 23,0 C 69 % 1014,6 hPa 0,0 mm 6,3 km/h (2 Bft) W 270 5 min 11,3 C 0,0 km/h (0 Bft)
01.06.2016 15:10 17,1 C 23,0 C 69 % 1014,4 hPa 0,0 mm 3,0 km/h (1 Bft) N-NW 337 5 min 11,4 C 0,0 km/h (0 Bft)
01.06.2016 15:15 17,2 C 23,0 C 68 % 1014,4 hPa 0,0 mm 3,0 km/h (1 Bft) N-NW 337 5 min 11,2 C 0,0 km/h (0 Bft)
01.06.2016 15:20 17,3 C 22,8 C 68 % 1014,4 hPa 0,0 mm 4,5 km/h (1 Bft) W-NW 292 5 min 11,3 C 8,9 km/h (2 Bft)
01.06.2016 15:25 17,7 C 23,1 C 67 % 1014,4 hPa 0,0 mm 5,7 km/h (1 Bft) O-SO 112 5 min 11,5 C 9,5 km/h (2 Bft)
01.06.2016 15:30 17,6 C 24,1 C 64 % 1014,2 hPa 0,0 mm 4,5 km/h (1 Bft) W-NW 292 5 min 10,7 C 0,0 km/h (0 Bft)
01.06.2016 15:35 18,1 C 25,2 C 65 % 1014,2 hPa 0,0 mm 4,2 km/h (1 Bft) W 270 5 min 11,4 C 10,7 km/h (2 Bft)
01.06.2016 15:40 17,9 C 24,8 C 64 % 1014,2 hPa 0,0 mm 4,2 km/h (1 Bft) SW 225 5 min 11,0 C 0,0 km/h (0 Bft)
01.06.2016 15:45 17,8 C 23,7 C 61 % 1014,2 hPa 0,0 mm 4,8 km/h (1 Bft) S-SO 157 5 min 10,2 C 0,0 km/h (0 Bft)
01.06.2016 15:50 17,8 C 22,5 C 63 % 1014,1 hPa 0,0 mm 2,1 km/h (1 Bft) NW 315 5 min 10,7 C 0,0 km/h (0 Bft)
01.06.2016 15:55 17,8 C 22,1 C 63 % 1014,1 hPa 0,0 mm 1,5 km/h (1 Bft) W-SW 247 5 min 10,7 C 8,0 km/h (2 Bft)
01.06.2016 16:00 17,7 C 21,5 C 62 % 1014,1 hPa 0,0 mm 5,4 km/h (1 Bft) W-NW 292 5 min 10,3 C 4,8 km/h (1 Bft)
01.06.2016 16:05 17,7 C 21,5 C 62 % 1014,1 hPa 0,0 mm 5,7 km/h (1 Bft) N-NO 22 5 min 10,3 C 4,8 km/h (1 Bft)
01.06.2016 16:07 17,7 C 21,5 C 62 % 1014,1 hPa 0,0 mm 5,7 km/h (1 Bft) N-NO 22 2 min 10,3 C 4,8 km/h (1 Bft)
01.06.2016 16:10 17,7 C 21,4 C 59 % 1013,9 hPa 0,0 mm 4,5 km/h (1 Bft) NW 315 3 min 9,6 C 6,3 km/h (2 Bft)
01.06.2016 16:15 17,6 C 21,8 C 60 % 1013,9 hPa 0,0 mm 8,3 km/h (2 Bft) N-NW 337 5 min 9,7 C 17,6 km/h (3 Bft)
01.06.2016 16:20 17,3 C 20,1 C 62 % 1013,9 hPa 0,0 mm 10,7 km/h (2 Bft) N-NW 337 0 min 9,9 C 5,4 km/h (1 Bft)
01.06.2016 16:25 17,2 C 19,6 C 61 % 1013,9 hPa 0,0 mm 8,9 km/h (2 Bft) NW 315 0 min 9,6 C 11,9 km/h (2 Bft)
01.06.2016 16:30 17,3 C 19,4 C 62 % 1014,1 hPa 0,0 mm 6,0 km/h (2 Bft) N-NO 22 0 min 9,9 C 0,0 km/h (0 Bft)
01.06.2016 16:35 17,4 C 19,7 C 62 % 1014,1 hPa 0,0 mm 4,2 km/h (1 Bft) W-SW 247 0 min 10,0 C 7,5 km/h (2 Bft)
01.06.2016 16:40 17,5 C 20,0 C 61 % 1014,1 hPa 0,0 mm 4,5 km/h (1 Bft) N-NO 22 0 min 9,9 C 8,9 km/h (2 Bft)
01.06.2016 16:45 17,6 C 20,8 C 60 % 1014,1 hPa 0,0 mm 8,0 km/h (2 Bft) N-NO 22 5 min 9,7 C 19,1 km/h (3 Bft)
01.06.2016 16:50 17,2 C 20,3 C 62 % 1014,1 hPa 0,0 mm 11,9 km/h (2 Bft) NW 315 5 min 9,9 C 26,2 km/h (4 Bft)
01.06.2016 16:55 17,1 C 19,5 C 63 % 1014,1 hPa 0,0 mm 13,7 km/h (3 Bft) N-NW 337 0 min 10,0 C 8,9 km/h (2 Bft)
01.06.2016 17:00 17,1 C 19,1 C 63 % 1014,1 hPa 0,0 mm 12,5 km/h (3 Bft) NW 315 0 min 10,0 C 7,5 km/h (2 Bft)
01.06.2016 17:05 17,0 C 19,0 C 64 % 1014,1 hPa 0,0 mm 10,7 km/h (2 Bft) N-NW 337 0 min 10,1 C 10,1 km/h (2 Bft)
01.06.2016 17:10 16,9 C 18,6 C 64 % 1014,0 hPa 0,0 mm 9,8 km/h (2 Bft) NW 315 0 min 10,0 C 9,8 km/h (2 Bft)
01.06.2016 17:15 16,8 C 18,5 C 63 % 1014,0 hPa 0,0 mm 10,1 km/h (2 Bft) NW 315 0 min 9,7 C 17,6 km/h (3 Bft)
01.06.2016 17:20 16,5 C 18,1 C 62 % 1014,0 hPa 0,0 mm 12,2 km/h (2 Bft) W-NW 292 0 min 9,2 C 8,9 km/h (2 Bft)
01.06.2016 17:25 16,2 C 17,7 C 61 % 1014,0 hPa 0,0 mm 11,6 km/h (2 Bft) NW 315 0 min 8,7 C 15,2 km/h (3 Bft)
01.06.2016 17:30 15,9 C 17,0 C 63 % 1014,0 hPa 0,0 mm 8,9 km/h (2 Bft) W 270 0 min 8,9 C 18,2 km/h (3 Bft)
01.06.2016 17:35 15,8 C 16,8 C 62 % 1014,0 hPa 0,0 mm 9,8 km/h (2 Bft) N-NO 22 0 min 8,5 C 15,8 km/h (3 Bft)
01.06.2016 17:40 16,0 C 17,0 C 61 % 1014,0 hPa 0,0 mm 10,7 km/h (2 Bft) N-NW 337 0 min 8,5 C 17,6 km/h (3 Bft)
01.06.2016 17:45 16,0 C 17,0 C 61 % 1014,0 hPa 0,0 mm 9,5 km/h (2 Bft) W 270 0 min 8,5 C 10,7 km/h (2 Bft)
01.06.2016 17:50 15,9 C 17,0 C 62 % 1014,1 hPa 0,0 mm 9,2 km/h (2 Bft) NW 315 0 min 8,6 C 13,7 km/h (3 Bft)
01.06.2016 17:55 15,9 C 17,2 C 63 % 1014,1 hPa 0,0 mm 8,0 km/h (2 Bft) NW 315 0 min 8,9 C 14,6 km/h (3 Bft)
01.06.2016 18:00 16,0 C 17,3 C 62 % 1014,1 hPa 0,0 mm 6,9 km/h (2 Bft) NW 315 0 min 8,7 C 6,0 km/h (2 Bft)
01.06.2016 18:05 16,1 C 17,4 C 62 % 1014,1 hPa 0,0 mm 6,6 km/h (2 Bft) W 270 0 min 8,8 C 10,1 km/h (2 Bft)
01.06.2016 18:10 16,1 C 17,7 C 62 % 1014,1 hPa 0,0 mm 2,7 km/h (1 Bft) NW 315 0 min 8,8 C 0,0 km/h (0 Bft)
01.06.2016 18:15 16,1 C 17,8 C 62 % 1014,1 hPa 0,0 mm 2,7 km/h (1 Bft) N-NW 337 0 min 8,8 C 6,0 km/h (2 Bft)
01.06.2016 18:20 16,0 C 17,5 C 63 % 1014,1 hPa 0,0 mm 2,7 km/h (1 Bft) N-NW 337 0 min 9,0 C 6,3 km/h (2 Bft)
01.06.2016 18:25 16,0 C 17,2 C 63 % 1014,1 hPa 0,0 mm 4,2 km/h (1 Bft) NW 315 0 min 9,0 C 4,2 km/h (1 Bft)
01.06.2016 18:30 16,0 C 17,2 C 63 % 1014,1 hPa 0,0 mm 6,9 km/h (2 Bft) NW 315 0 min 9,0 C 9,2 km/h (2 Bft)
01.06.2016 18:35 16,0 C 17,2 C 63 % 1014,1 hPa 0,0 mm 7,2 km/h (2 Bft) N-NO 22 0 min 9,0 C 8,3 km/h (2 Bft)
01.06.2016 18:40 16,0 C 17,1 C 64 % 1014,1 hPa 0,0 mm 4,5 km/h (1 Bft) W 270 0 min 9,2 C 0,0 km/h (0 Bft)
01.06.2016 18:45 16,0 C 17,0 C 64 % 1014,1 hPa 0,0 mm 1,8 km/h (1 Bft) NW 315 0 min 9,2 C 0,0 km/h (0 Bft)
01.06.2016 18:50 15,9 C 16,8 C 65 % 1014,1 hPa 0,0 mm 0,3 km/h (0 Bft) W-NW 292 0 min 9,3 C 0,0 km/h (0 Bft)
01.06.2016 18:55 15,8 C 16,6 C 65 % 1014,1 hPa 0,0 mm 0,3 km/h (0 Bft) NW 315 0 min 9,2 C 0,0 km/h (0 Bft)
01.06.2016 19:00 15,8 C 16,4 C 66 % 1014,1 hPa 0,0 mm 0,0 km/h (0 Bft) W 270 0 min 9,5 C 0,0 km/h (0 Bft)
01.06.2016 19:05 15,7 C 16,2 C 66 % 1014,1 hPa 0,0 mm 0,0 km/h (0 Bft) S 180 0 min 9,4 C 0,0 km/h (0 Bft)
01.06.2016 19:08 15,7 C 16,2 C 66 % 1014,1 hPa 0,0 mm 0,0 km/h (0 Bft) S 180 0 min 9,4 C 0,0 km/h (0 Bft)
01.06.2016 19:10 15,2 C 15,8 C 66 % 1014,0 hPa 0,0 mm 0,0 km/h (0 Bft) SW 225 0 min 8,9 C 0,0 km/h (0 Bft)
01.06.2016 19:15 15,1 C 15,6 C 67 % 1014,0 hPa 0,0 mm 0,0 km/h (0 Bft) S 180 0 min 9,0 C 0,0 km/h (0 Bft)
01.06.2016 19:20 14,8 C 15,4 C 68 % 1014,0 hPa 0,0 mm 0,0 km/h (0 Bft) S-SO 157 0 min 9,0 C 0,0 km/h (0 Bft)
01.06.2016 19:25 14,8 C 15,2 C 69 % 1014,0 hPa 0,0 mm 0,0 km/h (0 Bft) S-SO 157 0 min 9,2 C 0,0 km/h (0 Bft)
01.06.2016 19:30 14,7 C 15,0 C 70 % 1014,0 hPa 0,0 mm 0,0 km/h (0 Bft) S-SO 157 0 min 9,3 C 0,0 km/h (0 Bft)
01.06.2016 19:35 14,6 C 14,9 C 71 % 1014,0 hPa 0,0 mm 0,0 km/h (0 Bft) S-SO 157 0 min 9,4 C 0,0 km/h (0 Bft)
01.06.2016 19:40 14,5 C 14,8 C 71 % 1014,0 hPa 0,0 mm 0,0 km/h (0 Bft) SW 225 0 min 9,3 C 0,0 km/h (0 Bft)
01.06.2016 19:45 14,4 C 14,7 C 72 % 1014,0 hPa 0,0 mm 0,0 km/h (0 Bft) SW 225 0 min 9,4 C 0,0 km/h (0 Bft)
01.06.2016 19:50 14,5 C 14,7 C 72 % 1014,1 hPa 0,0 mm 1,5 km/h (1 Bft) SW 225 0 min 9,5 C 0,0 km/h (0 Bft)
01.06.2016 19:55 14,5 C 14,6 C 72 % 1014,1 hPa 0,0 mm 1,8 km/h (1 Bft) S-SW 202 0 min 9,5 C 0,0 km/h (0 Bft)
01.06.2016 20:00 14,4 C 14,6 C 72 % 1014,1 hPa 0,0 mm 1,2 km/h (1 Bft) SW 225 0 min 9,4 C 0,0 km/h (0 Bft)
01.06.2016 20:05 14,4 C 14,5 C 72 % 1014,1 hPa 0,0 mm 0,6 km/h (0 Bft) W 270 0 min 9,4 C 0,0 km/h (0 Bft)
01.06.2016 20:10 14,3 C 14,4 C 73 % 1014,2 hPa 0,0 mm 1,2 km/h (1 Bft) SW 225 0 min 9,5 C 0,0 km/h (0 Bft)
01.06.2016 20:15 14,2 C 14,4 C 73 % 1014,2 hPa 0,0 mm 1,2 km/h (1 Bft) W-SW 247 0 min 9,4 C 0,0 km/h (0 Bft)
01.06.2016 20:20 14,3 C 14,3 C 72 % 1014,2 hPa 0,0 mm 0,0 km/h (0 Bft) S 180 0 min 9,3 C 0,0 km/h (0 Bft)
01.06.2016 20:25 14,2 C 14,3 C 72 % 1014,2 hPa 0,0 mm 0,0 km/h (0 Bft) W-SW 247 0 min 9,2 C 0,0 km/h (0 Bft)
01.06.2016 20:30 14,0 C 14,1 C 71 % 1014,1 hPa 0,0 mm 0,0 km/h (0 Bft) S 180 0 min 8,8 C 0,0 km/h (0 Bft)
01.06.2016 20:35 13,9 C 14,0 C 72 % 1014,1 hPa 0,0 mm 0,0 km/h (0 Bft) S-SW 202 0 min 8,9 C 0,0 km/h (0 Bft)
01.06.2016 20:40 13,8 C 13,9 C 72 % 1014,1 hPa 0,0 mm 0,0 km/h (0 Bft) S 180 0 min 8,8 C 0,0 km/h (0 Bft)
01.06.2016 20:45 13,8 C 13,9 C 72 % 1014,1 hPa 0,0 mm 0,0 km/h (0 Bft) S 180 0 min 8,8 C 0,0 km/h (0 Bft)
01.06.2016 20:50 13,7 C 13,7 C 74 % 1014,0 hPa 0,0 mm 0,0 km/h (0 Bft) S 180 0 min 9,2 C 0,0 km/h (0 Bft)
01.06.2016 20:55 13,7 C 13,7 C 74 % 1014,0 hPa 0,0 mm 0,3 km/h (0 Bft) S-SO 157 0 min 9,2 C 0,0 km/h (0 Bft)
01.06.2016 21:00 13,5 C 13,5 C 75 % 1014,0 hPa 0,0 mm 0,3 km/h (0 Bft) S-SO 157 0 min 9,2 C 0,0 km/h (0 Bft)
01.06.2016 21:05 13,4 C 13,4 C 75 % 1014,0 hPa 0,0 mm 0,0 km/h (0 Bft) S-SO 157 0 min 9,1 C 0,0 km/h (0 Bft)
01.06.2016 21:10 13,3 C 13,3 C 76 % 1014,1 hPa 0,0 mm 0,0 km/h (0 Bft) S 180 0 min 9,2 C 0,0 km/h (0 Bft)
01.06.2016 21:15 13,2 C 13,1 C 76 % 1014,1 hPa 0,0 mm 0,0 km/h (0 Bft) S 180 0 min 9,1 C 0,0 km/h (0 Bft)
01.06.2016 21:20 13,0 C 12,9 C 76 % 1014,1 hPa 0,0 mm 0,0 km/h (0 Bft) S-SO 157 0 min 8,9 C 0,0 km/h (0 Bft)
01.06.2016 21:25 12,9 C 12,8 C 77 % 1014,1 hPa 0,0 mm 0,0 km/h (0 Bft) SW 225 0 min 9,0 C 0,0 km/h (0 Bft)
01.06.2016 21:30 12,8 C 12,8 C 78 % 1014,1 hPa 0,0 mm 0,9 km/h (0 Bft) S-SW 202 0 min 9,1 C 8,3 km/h (2 Bft)
01.06.2016 21:35 12,9 C 12,8 C 78 % 1014,1 hPa 0,0 mm 3,6 km/h (1 Bft) O-SO 112 0 min 9,2 C 8,6 km/h (2 Bft)
01.06.2016 21:40 12,8 C 12,8 C 79 % 1014,1 hPa 0,0 mm 4,5 km/h (1 Bft) O-SO 112 0 min 9,2 C 0,0 km/h (0 Bft)
01.06.2016 21:45 12,8 C 12,6 C 79 % 1014,1 hPa 0,0 mm 1,5 km/h (1 Bft) N-NO 22 0 min 9,2 C 0,0 km/h (0 Bft)
01.06.2016 21:50 12,6 C 12,4 C 79 % 1014,1 hPa 0,0 mm 0,0 km/h (0 Bft) O-NO 67 0 min 9,1 C 0,0 km/h (0 Bft)
01.06.2016 21:55 12,4 C 12,2 C 79 % 1014,1 hPa 0,0 mm 0,0 km/h (0 Bft) N-NO 22 0 min 8,9 C 0,0 km/h (0 Bft)
01.06.2016 22:00 12,2 C 11,9 C 79 % 1014,1 hPa 0,0 mm 0,0 km/h (0 Bft) NO 45 0 min 8,7 C 0,0 km/h (0 Bft)
01.06.2016 22:05 12,1 C 11,8 C 79 % 1014,1 hPa 0,0 mm 0,0 km/h (0 Bft) SW 225 0 min 8,6 C 0,0 km/h (0 Bft)
01.06.2016 22:08 12,1 C 11,7 C 79 % 1014,3 hPa 0,0 mm 0,0 km/h (0 Bft) O 90 0 min 8,6 C 0,0 km/h (0 Bft)
01.06.2016 22:09 12,1 C 11,7 C 79 % 1014,3 hPa 0,0 mm 0,0 km/h (0 Bft) O 90 0 min 8,6 C 0,0 km/h (0 Bft)
01.06.2016 22:10 12,1 C 11,7 C 79 % 1014,3 hPa 0,0 mm 0,0 km/h (0 Bft) O 90 0 min 8,6 C 0,0 km/h (0 Bft)
01.06.2016 22:15 12,0 C 11,6 C 79 % 1014,3 hPa 0,0 mm 0,0 km/h (0 Bft) O-NO 67 0 min 8,5 C 0,0 km/h (0 Bft)
01.06.2016 22:20 11,8 C 11,4 C 80 % 1014,3 hPa 0,0 mm 0,0 km/h (0 Bft) W-NW 292 0 min 8,5 C 0,0 km/h (0 Bft)
01.06.2016 22:25 11,6 C 11,2 C 80 % 1014,3 hPa 0,0 mm 0,0 km/h (0 Bft) NW 315 0 min 8,3 C 0,0 km/h (0 Bft)
01.06.2016 22:30 11,5 C 11,3 C 81 % 1014,3 hPa 0,0 mm 0,6 km/h (0 Bft) SW 225 0 min 8,4 C 6,0 km/h (2 Bft)
01.06.2016 22:35 11,6 C 11,5 C 81 % 1014,3 hPa 0,0 mm 1,5 km/h (1 Bft) W 270 0 min 8,5 C 0,0 km/h (0 Bft)
01.06.2016 22:40 11,7 C 11,5 C 81 % 1014,3 hPa 0,0 mm 1,2 km/h (1 Bft) S-SW 202 0 min 8,5 C 9,5 km/h (2 Bft)
01.06.2016 22:45 11,7 C 11,6 C 81 % 1014,3 hPa 0,0 mm 1,8 km/h (1 Bft) SW 225 0 min 8,5 C 7,2 km/h (2 Bft)
01.06.2016 22:50 11,8 C 11,7 C 82 % 1014,1 hPa 0,0 mm 3,6 km/h (1 Bft) O-NO 67 0 min 8,8 C 0,0 km/h (0 Bft)
01.06.2016 22:55 11,8 C 11,7 C 82 % 1014,1 hPa 0,0 mm 2,4 km/h (1 Bft) W 270 0 min 8,8 C 0,0 km/h (0 Bft)
01.06.2016 23:00 11,8 C 11,7 C 82 % 1014,1 hPa 0,0 mm 0,0 km/h (0 Bft) O-NO 67 0 min 8,8 C 0,0 km/h (0 Bft)
01.06.2016 23:05 11,8 C 11,7 C 82 % 1014,1 hPa 0,0 mm 0,0 km/h (0 Bft) NW 315 0 min 8,8 C 0,0 km/h (0 Bft)
01.06.2016 23:10 11,8 C 11,8 C 82 % 1013,9 hPa 0,0 mm 0,0 km/h (0 Bft) SW 225 0 min 8,8 C 0,0 km/h (0 Bft)
01.06.2016 23:15 11,8 C 11,8 C 82 % 1013,9 hPa 0,0 mm 0,0 km/h (0 Bft) NW 315 0 min 8,8 C 0,0 km/h (0 Bft)
01.06.2016 23:20 11,9 C 11,8 C 82 % 1013,9 hPa 0,0 mm 0,0 km/h (0 Bft) O-NO 67 0 min 8,9 C 0,0 km/h (0 Bft)
01.06.2016 23:25 11,8 C 11,7 C 82 % 1013,9 hPa 0,0 mm 0,0 km/h (0 Bft) NW 315 0 min 8,8 C 0,0 km/h (0 Bft)
01.06.2016 23:30 11,7 C 11,7 C 82 % 1013,8 hPa 0,0 mm 0,0 km/h (0 Bft) O-NO 67 0 min 8,7 C 0,0 km/h (0 Bft)
01.06.2016 23:35 11,7 C 11,6 C 82 % 1013,8 hPa 0,0 mm 0,0 km/h (0 Bft) SW 225 0 min 8,7 C 0,0 km/h (0 Bft)
01.06.2016 23:40 11,7 C 11,6 C 82 % 1013,8 hPa 0,0 mm 0,0 km/h (0 Bft) N-NO 22 0 min 8,7 C 0,0 km/h (0 Bft)
01.06.2016 23:45 11,6 C 11,5 C 82 % 1013,8 hPa 0,0 mm 0,0 km/h (0 Bft) NW 315 0 min 8,6 C 0,0 km/h (0 Bft)
01.06.2016 23:50 11,5 C 11,3 C 82 % 1013,8 hPa 0,0 mm 0,0 km/h (0 Bft) N-NO 22 0 min 8,5 C 0,0 km/h (0 Bft)
01.06.2016 23:55 11,3 C 11,0 C 82 % 1013,8 hPa 0,0 mm 0,0 km/h (0 Bft) N-NO 22 0 min 8,3 C 0,0 km/h (0 Bft)
_ Min-Zeit 05:05 06:05 16:10 23:55 - 23:55 - - - 05:05 23:55
Minimum _ 10,2 C 10,1 C 59 % 1013,8 hPa - 0,0 km/h (0 Bft) - - - 8,1 C 0,0 km/h (0 Bft)
_ Max-Zeit 15:35 15:35 09:35 14:05 13:10 16:55 - - 16:50 13:10 16:50
Maximum _ 18,1 C 25,2 C 87 % 1015,5 hPa 0,7 mm 13,7 km/h
N-NW (3 Bft)
- - 5 min 12,0 C 26,2 km/h
NW (4 Bft)
Durchschnitt _ 13,1 C 14,2 C 79 % 1014,4 hPa #5,5 mm 2,6 km/h (1 Bft) NW - #3:45 h 9,3 C 3,7 km/h (1 Bft)